Regional Weather Roundup
Issued by NWS

Home | Current Version | Previous Version | Graphics & Text | Print | Product List | Glossary On
Versions: 1 2 3 4 5 6 7 8 9 10 11 12 13 14 15 16 17 18 19 20 21 22 23 24 25 26 27 28 29 30 31 32 33 34 35 36 37 38 39 40 41 42 43 44 45 46 47 48 49 50
500
ASUS45 KSLC 291510
RWRUT

UTAH REGIONAL WEATHER ROUNDUP
NATIONAL WEATHER SERVICE SALT LAKE CITY UT
900 AM MDT SUN MAY 29 2016

UTZ001>011-023>025-291600-

NORTHERN UTAH

CITY           SKY/WX    TMP DP  RH WIND       PRES   REMARKS
BRIGHAM CITY     N/A     55  43  65 N3        30.12R
HILL AFB       MOSUNNY   58  41  51 E10       30.11S
LOGAN          SUNNY     51  43  74 N6        30.14R
OGDEN          SUNNY     63  38  39 CALM      30.10S
PROVO AIRPORT  MOSUNNY   59  45  58 S6        30.14R
SALT LAKE CITY MOSUNNY   66  43  43 S6        30.09R
VERNAL         SUNNY     58  41  53 E5        30.19R
WENDOVER       SUNNY     63  39  42 CALM      30.10S
HEBER CITY     SUNNY     52  39  62 CALM      30.17S
WEST JORDAN    SUNNY     63  45  51 SE7       30.12R

$$

UTZ012>022-026-027-291600-

SOUTHERN/CENTRAL UTAH

CITY           SKY/WX    TMP DP  RH WIND       PRES   REMARKS
BLANDING       SUNNY     67  31  26 E5        30.24R
BRYCE CANYON   SUNNY     54  35  48 NE6       30.26R
CEDAR CITY     MOSUNNY   61  35  37 CALM      30.13R
DELTA          PTSUNNY   61  39  44 CALM      30.13R
HANKSVILLE     SUNNY     63  36  36 CALM      30.15S
MILFORD        SUNNY     61  39  44 CALM      30.12R
MOAB/CYNLANDS  MOSUNNY   68  35  29 E9        30.11R
PRICE          PTSUNNY   61  37  41 S5        30.19R
ST GEORGE      SUNNY     73  32  21 E3        30.02S
KANAB          SUNNY     70  36  28 N5        30.14R

$$

REGIONAL REPORTS     COLORADO/ARIZONA

CITY           SKY/WX    TMP DP  RH WIND       PRES   REMARKS
CRAIG, CO      SUNNY     56  40  55 VRB3      30.23S
GRAND JUNCTION SUNNY     64  36  35 SE15      30.16S
RIFLE          SUNNY     57  37  47 CALM      30.22S
MONTROSE       SUNNY     59  34  39 VRB3      30.23S
CORTEZ         SUNNY     62  35  36 CALM      30.18R
PAGE, AZ       NOT AVBL
GRAND CANYON   SUNNY     63  26  24 E3        30.21R
KINGMAN        SUNNY     73  29  19 VRB5      30.02R
FLAGSTAFF      SUNNY     57  24  28 SW6       30.24R

$$

REGIONAL REPORTS    NEVADA/IDAHO/WYOMING

CITY           SKY/WX    TMP DP  RH WIND       PRES   REMARKS
LAS VEGAS, NV  MOSUNNY   77  29  17 N3        29.91R
ELY            SUNNY     51  40  65 S6        30.18S
ELKO           MOSUNNY   56  42  59 NE6       30.13R
POCATELLO, ID  SUNNY     53  40  61 CALM      30.14R
BURLEY         SUNNY     53  41  63 N5        30.10R
EVANSTON, WY   SUNNY     53  35  50 E5        30.23S
ROCK SPRINGS   SUNNY     51  35  54 W5        30.24S
KEMMERER         N/A     52  34  50 CALM      30.26R

$$




USA.gov is the U.S. government's official web portal to all federal, state and local government web resources and services.